This is the latest recevied weather packets stored in our database for station/object AA4OM-2. If no packets are shown the sender has not sent any weather packets the latest 10 day(s).
| Time | Temp. | Humidity | Pressure | Rain* | Wind** | Luminosity | Snow |
|---|---|---|---|---|---|---|---|
| 1777675188 | 17.22° C | 33% | 1015.6 hPa | 0 mm | - | 145 W/m² | - |
| 1777674884 | 17.78° C | 35% | 1015.6 hPa | 0 mm | - | 140 W/m² | - |
| 1777674580 | 17.78° C | 31% | 1015.3 hPa | 0 mm | - | 166 W/m² | - |
| 1777674278 | 17.78° C | 29% | 1015.3 hPa | 0 mm | - | 175 W/m² | - |
| 1777673974 | 18.33° C | 30% | 1015.2 hPa | 0 mm | - | 318 W/m² | - |
| 1777673671 | 18.33° C | 31% | 1015.2 hPa | 0 mm | - | 312 W/m² | - |
| 1777673368 | 18.33° C | 30% | 1015.2 hPa | 0 mm | - | 375 W/m² | - |
| 1777673066 | 18.33° C | 33% | 1015.5 hPa | 0 mm | - | 400 W/m² | - |
| 1777672761 | 18.89° C | 31% | 1015.3 hPa | 0 mm | - | 241 W/m² | - |
| 1777672459 | 18.33° C | 34% | 1015.3 hPa | 0 mm | - | 429 W/m² | - |
| 1777672154 | 17.78° C | 39% | 1015.4 hPa | 0 mm | - | 543 W/m² | - |
| 1777671849 | 17.78° C | 32% | 1015.2 hPa | 0 mm | - | 176 W/m² | - |
| 1777671545 | 18.33° C | 31% | 1015.3 hPa | 0 mm | - | 389 W/m² | - |
| 1777671242 | 17.78° C | 32% | 1015.4 hPa | 0 mm | - | 215 W/m² | - |
| 1777670937 | 17.78° C | 32% | 1015.4 hPa | 0 mm | - | 265 W/m² | - |
| 1777670635 | 18.33° C | 32% | 1015.6 hPa | 0 mm | - | 334 W/m² | - |
| 1777670332 | 18.33° C | 30% | 1015.4 hPa | 0 mm | - | 507 W/m² | - |
| 1777670029 | 18.33° C | 31% | 1015.4 hPa | 0 mm | - | 434 W/m² | - |
| 1777669726 | 18.33° C | 34% | 1015.5 hPa | 0 mm | - | 502 W/m² | - |
| 1777669423 | 17.78° C | 33% | 1015.7 hPa | 0 mm | - | 608 W/m² | - |
| 1777669119 | 18.33° C | 32% | 1015.8 hPa | 0 mm | - | 320 W/m² | - |
| 1777668817 | 18.33° C | 33% | 1015.8 hPa | 0 mm | - | 650 W/m² | - |
| 1777668513 | 18.89° C | 31% | 1016.2 hPa | 0 mm | - | 596 W/m² | - |
| 1777668209 | 18.33° C | 39% | 1016 hPa | 0 mm | - | 573 W/m² | - |
| 1777667906 | 17.78° C | 34% | 1016.2 hPa | 0 mm | - | 796 W/m² | - |
* Rain latest hour (hover to see other rain measurements)
** Current wind speed in m/s (hover to see current wind gust speed)